Huvudsida
METAR-TAF:

METAR-TAF

Flygplatser :

Lycksele flygplats

Lycksele, Sverige

latitud: 64-32-51N, longitud: 018-43-03E, höjd: 211 m

Aktuellt väderrapport

Denna rapport gjordes för 18 minuter sedan, klockan 04:50 UTC
Vind 8 kt från väst
Temperatur 5°C
Fuktighet 70%
Tryck 1028 hPa
Sikt 10 km eller mer

METAR: ESNL 170450Z AUTO 27008KT 9999 NCD 05/00 Q1028

Tid: 06:08 (05:08 UTC)


TAF: saknas

Aktuella väderrapporter och prognoser från 4000 flygplatser (METAR- och TAF-rapporter).

De tillgängliga stationerna syns som gula och röda prickar på kartan.

För musen över prickarna för att se namnen på stationerna.

Klicka sedan för att få väderrapporter och prognoser.

För att ändra kartan: Klicka på de gröna knapparna med ett svart kors på för att zooma in; den gröna knappen med ett streck på för att zooma ut; eller på de gröna pilarna för angränsande kartor.


METAR-TAF: